Location: Huesca
(42.1318°N, 0.4078°W)
Time: 18:50:26
(UTC+02:00)

Courier 1B - All Passes

Search period start: 14 June 2025 00:00
Search period end: 24 June 2025 00:00
Orbit: 962 x 1208 km, 28.3° (Epoch: 13 June)

Date Brightness Start Highest point End Pass type
(mag) Time Alt. Az. Time Alt. Az. Time Alt. Az.
14 Jun - 01:55:05 10° SSW 01:58:44 16° SSE 02:02:26 10° SE visible
14 Jun - 03:46:37 10° SW 03:51:42 24° S 03:56:57 10° SE visible
14 Jun - 05:39:51 10° WSW 05:44:49 22° S 05:49:59 10° SE visible
14 Jun - 07:35:27 10° SW 07:37:52 12° SSW 07:40:19 10° S daylight
15 Jun - 01:02:38 10° S 01:05:11 12° SSE 01:07:45 10° SE night (unlit)
15 Jun - 02:53:14 10° SW 02:58:05 22° S 03:03:03 10° ESE visible
15 Jun - 04:46:08 10° SW 04:51:10 23° S 04:56:24 10° SE visible
15 Jun - 06:40:44 10° SW 06:44:14 15° SSW 06:47:50 10° SSE daylight
16 Jun - 01:59:58 10° SSW 02:04:30 20° SSE 02:09:05 10° ESE visible
16 Jun - 03:52:30 10° SW 03:57:33 24° S 04:02:44 10° SE visible
16 Jun - 05:46:30 10° SW 05:50:36 17° SSW 05:54:50 10° SSE visible
17 Jun - 01:06:50 10° SSW 01:10:56 18° SSE 01:15:02 10° SE night (unlit)
17 Jun - 02:58:55 10° SW 03:03:55 24° S 03:09:02 10° SE visible
17 Jun - 04:52:30 10° WSW 04:56:59 19° SSW 05:01:35 10° SSE visible
18 Jun - 00:13:56 10° SSW 00:17:22 15° SSE 00:20:48 10° SE night (unlit)
18 Jun - 02:05:25 10° SW 02:10:20 23° S 02:15:17 10° SE visible
18 Jun - 03:58:40 10° WSW 04:03:23 21° S 04:08:12 10° SE visible
18 Jun - 05:54:21 10° SW 05:56:20 11° SSW 05:58:21 10° S visible
18 Jun - 23:21:28 10° S 23:23:49 12° SSE 23:26:09 10° SE visible
19 Jun - 01:11:58 10° SW 01:16:44 22° S 01:21:29 10° SE night (unlit)
19 Jun - 03:04:54 10° SW 03:09:46 23° S 03:14:43 10° SE visible
19 Jun - 04:59:32 10° SW 05:02:45 14° SSW 05:06:02 10° S visible
20 Jun - 00:18:38 10° SSW 00:23:09 20° SSE 00:27:37 10° SE visible
20 Jun - 02:11:13 10° SW 02:16:11 23° S 02:21:10 10° SE night (unlit)
20 Jun - 04:05:16 10° SW 04:09:11 17° SSW 04:13:09 10° SSE visible
20 Jun - 23:25:25 10° SSW 23:29:34 17° SSE 23:33:38 10° SE visible
21 Jun - 01:17:35 10° SW 01:22:35 24° S 01:27:33 10° SE visible
21 Jun - 03:11:14 10° SW 03:15:36 19° SSW 03:20:00 10° SSE night (unlit)
21 Jun - 22:32:25 10° SSW 22:35:58 15° SSE 22:39:28 10° SE visible
22 Jun - 00:23:59 10° SW 00:28:58 23° S 00:33:53 10° SE visible
22 Jun - 02:17:19 10° WSW 02:22:01 21° S 02:26:43 10° SE night (unlit)
22 Jun - 04:13:04 10° SW 04:14:55 11° SSW 04:16:47 10° S visible
22 Jun - 21:39:50 10° S 21:42:23 12° SSE 21:44:54 10° SE daylight
22 Jun - 23:30:27 10° SW 23:35:22 22° S 23:40:10 10° ESE visible
23 Jun - 01:23:29 10° SW 01:28:26 23° S 01:33:19 10° SE visible
23 Jun - 03:18:09 10° SW 03:21:22 14° SSW 03:24:36 10° S night (unlit)
23 Jun - 22:37:00 10° SSW 22:41:45 20° SSE 22:46:22 10° ESE visible
